User: anonymous   Login
Location: Star Hoppers Observatory
(42.7905°N, 83.6127°W)
Time: 10:51:38
(UTC-04:00)
Language:

NOSS 3-1 (A) - Orbit

View from above orbital plane
View from above orbital plane
View from above satellite
View from above satellite

Ground track
Ground track

The orbit data is extracted from the following two-line orbital elements,

1 26905U 01040A   17115.95330358 0.00000010  00000-0  12255-4 0    01
2 26905  63.4120 166.9779 0365000 358.5852   1.4148 13.40748956    00
Epoch (UTC): 25 April 2017 22:52:45
Eccentricity: 0.0365000
inclination: 63.4120°
perigee height: 833 km
apogee height: 1379 km
right ascension of ascending node: 166.9779°
argument of perigee: 358.5852°
revolutions per day: 13.40748956
mean anomaly at epoch: 1.4148°
orbit number at epoch: 0

The dashed part of the orbit path shows where the satellite is in the earth's shadow,  

DLR